EAL377 KABI-KMEM

Flight info

Callsign EAL377
Flight time N/A
Altitude 37000
Route MQP FUZ CVE TXK HOBRK4
Aircraft R722/M-SDFGRWY/S

Departure

Time 2026-04-17 21:16
Airport Abilene Regional Airport (KABI)

Arrival

Time N/A
Airport Memphis International Airport (KMEM)
Time Latitude Longitude Altitude Speed Heading
2026-04-17 21:14 32.40812 -99.67476 1803 ft 0 kts 180°
2026-04-17 21:15 32.40802 -99.67476 1803 ft 10 kts 180°
2026-04-17 21:16 32.40487 -99.67477 1803 ft 82 kts 179°
2026-04-17 21:16 32.39676 -99.67461 1804 ft 150 kts 178°
2026-04-17 21:16 32.38575 -99.67410 2467 ft 160 kts 174°
2026-04-17 21:16 32.37497 -99.67262 3262 ft 166 kts 174°
2026-04-17 21:17 32.36303 -99.67166 3939 ft 178 kts 179°
2026-04-17 21:17 32.35121 -99.67058 4929 ft 173 kts 158°
2026-04-17 21:17 32.34164 -99.66069 5252 ft 211 kts 122°
2026-04-17 21:17 32.33744 -99.64228 5538 ft 250 kts 99°
2026-04-17 21:18 32.33647 -99.62121 6209 ft 269 kts 94°
2026-04-17 21:18 32.33636 -99.59872 7032 ft 281 kts 89°
2026-04-17 21:18 32.34105 -99.57575 7868 ft 294 kts 72°
2026-04-17 21:18 32.34862 -99.55332 8704 ft 303 kts 68°
2026-04-17 21:19 32.35696 -99.53017 9563 ft 309 kts 70°
2026-04-17 21:19 32.36386 -99.50625 10407 ft 314 kts 73°
2026-04-17 21:19 32.37040 -99.48070 10661 ft 342 kts 75°
2026-04-17 21:19 32.37709 -99.45265 10889 ft 366 kts 75°
2026-04-17 21:20 32.38379 -99.42323 11680 ft 370 kts 76°
2026-04-17 21:20 32.39022 -99.39461 12914 ft 360 kts 75°
2026-04-17 21:20 32.39392 -99.37956 13340 ft 362 kts 74°
2026-04-17 21:21 32.39600 -99.37127 13459 ft 367 kts 74°
2026-04-17 21:21 32.39877 -99.36026 13515 ft 376 kts 74°
2026-04-17 21:22 32.40639 -99.32976 13873 ft 391 kts 75°
2026-04-17 21:22 32.41409 -99.29861 14358 ft 401 kts 75°
2026-04-17 21:22 32.42189 -99.26662 14866 ft 412 kts 75°
2026-04-17 21:22 32.42991 -99.23350 15590 ft 423 kts 75°
2026-04-17 21:23 32.43800 -99.19995 16315 ft 433 kts 75°
2026-04-17 21:23 32.44137 -99.18595 16625 ft 436 kts 75°
2026-04-17 21:23 32.44668 -99.16389 17122 ft 441 kts 75°
2026-04-17 21:23 32.45249 -99.13980 17669 ft 445 kts 75°
2026-04-17 21:24 32.46103 -99.10442 18450 ft 451 kts 74°
2026-04-17 21:24 32.46961 -99.06877 19186 ft 457 kts 74°
2026-04-17 21:24 32.47834 -99.03227 19889 ft 463 kts 73°
2026-04-17 21:24 32.48715 -98.99541 20564 ft 469 kts 73°
2026-04-17 21:25 32.49608 -98.95816 21227 ft 475 kts 73°
2026-04-17 21:25 32.50518 -98.92040 21883 ft 480 kts 72°
2026-04-17 21:25 32.51440 -98.88235 22527 ft 485 kts 72°
2026-04-17 21:25 32.52376 -98.84400 23128 ft 489 kts 71°
2026-04-17 21:26 32.53330 -98.80525 23698 ft 495 kts 71°
2026-04-17 21:26 32.54306 -98.76578 24251 ft 500 kts 71°
2026-04-17 21:26 32.55278 -98.72646 24780 ft 505 kts 71°
2026-04-17 21:26 32.56264 -98.68633 25302 ft 509 kts 71°
2026-04-17 21:27 32.57246 -98.64606 25808 ft 514 kts 71°
2026-04-17 21:27 32.58231 -98.60533 26300 ft 518 kts 70°
2026-04-17 21:27 32.59214 -98.56441 26775 ft 522 kts 70°
2026-04-17 21:27 32.60211 -98.52268 27241 ft 527 kts 70°
2026-04-17 21:28 32.61214 -98.48053 27696 ft 531 kts 70°
2026-04-17 21:28 32.62206 -98.43883 28132 ft 534 kts 70°
2026-04-17 21:28 32.63222 -98.39598 28566 ft 538 kts 70°
2026-04-17 21:28 32.64230 -98.35352 28982 ft 542 kts 70°
2026-04-17 21:29 32.65252 -98.31046 29364 ft 546 kts 70°
2026-04-17 21:29 32.66281 -98.26709 29741 ft 549 kts 70°
2026-04-17 21:29 32.67310 -98.22365 30110 ft 552 kts 70°
2026-04-17 21:29 32.68358 -98.17922 30477 ft 555 kts 70°
2026-04-17 21:30 32.69390 -98.13543 30807 ft 558 kts 70°